User: anonymous   Login
Location: Unspecified
(0.0000°N, 0.0000°E)
Time: 10:32:42
(UTC+00:00)
Language:

PACE - Orbit

View from above orbital plane
View from above orbital plane
View from above satellite
View from above satellite

Ground track
Ground track

The orbit data is extracted from the following two-line orbital elements,

1 40022U 14033N   21017.04889691  .00000235  00000-0  31062-4 0  9991
2 40022  97.9272 307.0758 0012565 326.3746  33.6672 14.88957655357332
Epoch (UTC): 17 January 2021 01:10:24
Eccentricity: 0.0012565
inclination: 97.9272°
perigee height: 592 km
apogee height: 610 km
right ascension of ascending node: 307.0758°
argument of perigee: 326.3746°
revolutions per day: 14.88957655
mean anomaly at epoch: 33.6672°
orbit number at epoch: 35733

The dashed part of the orbit path shows where the satellite is in the earth's shadow,  

DLR